Вернуться в каталог

SJ-29B

АктивенНаукаGEO
NORAD 67403·PAYLOAD·🇨🇳 China

Запущен Dec 30, 2025 с Wenchang Space Launch Site

Loading…

TLE

СвежийSource: Space-Track

Эпоха: Sep 14, 2026, 12:26 UTC

1 67403U 25315C   26257.51845534 -.00000079  00000-0  00000-0 0  9990
2 67403   3.6178  92.9366 0006791  87.0805  73.6508  1.00274007  2588

Отслеживайте SJ-29B в реальном времени с AllMySat

Download on the App Store